Savanna, IA

2:56 PM CST on December 05, 2019 (GMT -0600)
Tri-Township

Weather History for KSFY - November, 2019

Change the Weather History Date:

Tuesday, November 12, 2019

  Actual Average (KCWI) Record (KCWI)
Temperature  
Mean Temperature 12 °F -  
Max Temperature 17 °F 45 °F 66 °F (1964)
Min Temperature 8 °F 28 °F 10 °F (1996)
Degree Days  
Heating Degree Days 52    
Moisture  
Dew Point 0 °F    
Average Humidity 59    
Maximum Humidity 73    
Minimum Humidity 42    
Precipitation  
Precipitation 0.00 in - - ()
Sea Level Pressure  
Sea Level Pressure 30.49 in    
Wind  
Wind Speed 8 mph (West)    
Max Wind Speed 14 mph    
Max Gust Speed 20 mph    
Visibility 10 miles    
Events      
Averages and records for this station are not official NWS values.
T = Trace of Precipitation, MM = Missing Value Source: NWS Daily Summary

Daily Weather History Graph

Daily Weather History Graph

Search for Another Location

Airport or City:

Astronomy

Nov. 12, 2019 Rise Set
Actual Time 6:46 AM CST 4:42 PM CST
Civil Twilight 6:16 AM CST 5:11 PM CST
Nautical Twilight 5:43 AM CST 5:45 PM CST
Astronomical Twilight 5:10 AM CST 6:18 PM CST
Moon 5:09 PM CST (11/12) 6:37 AM CST (11/12)
Length of Visible Light 10h 55m
Length of Day
9h 55m
Full, 100% of the Moon is Illuminated
Nov 12
Full
Nov 19
Last Quarter
Nov 26
New
Dec 4
First Quarter
Dec 11
Full

Hourly Weather History & Observations

Time (CST) Temp. Windchill Dew Point Humidity Pressure Visibility Wind Dir Wind Speed Gust Speed Precip Events Conditions
12:15 AM 12.2 °F -2.5 °F 1.4 °F 62% 30.52 in 10.0 mi NNW 12.7 mph - N/A   Clear
12:35 AM 12.2 °F -1.0 °F 1.4 °F 62% 30.52 in 10.0 mi NNW 10.4 mph - N/A   Clear
12:55 AM 12.2 °F -1.0 °F -0.4 °F 57% 30.53 in 10.0 mi NNW 10.4 mph - N/A   Clear
1:15 AM 10.4 °F -3.3 °F -0.4 °F 62% 30.53 in 10.0 mi NNW 10.4 mph - N/A   Clear
1:35 AM 10.4 °F -4.1 °F -0.4 °F 62% 30.53 in 10.0 mi NNW 11.5 mph 17.3 mph N/A   Clear
1:55 AM 10.4 °F -4.8 °F -0.4 °F 62% 30.54 in 10.0 mi NNW 12.7 mph - N/A   Clear
2:15 AM 10.4 °F -0.4 °F -0.4 °F 62% 30.54 in 10.0 mi NNW 6.9 mph - N/A   Clear
2:35 AM 10.4 °F -3.3 °F -0.4 °F 62% 30.54 in 10.0 mi NNW 10.4 mph - N/A   Clear
2:55 AM 10.4 °F -5.4 °F -0.4 °F 62% 30.54 in 10.0 mi NNW 13.8 mph 17.3 mph N/A   Clear
3:15 AM 10.4 °F -3.3 °F -0.4 °F 62% 30.54 in 10.0 mi NNW 10.4 mph 17.3 mph N/A   Clear
3:35 AM 8.6 °F -3.7 °F -0.4 °F 67% 30.54 in 10.0 mi NNW 8.1 mph - N/A   Clear
3:55 AM 8.6 °F -3.7 °F -2.2 °F 62% 30.53 in 10.0 mi NNW 8.1 mph - N/A   Clear
4:15 AM 8.6 °F -4.7 °F -2.2 °F 62% 30.54 in 10.0 mi NNW 9.2 mph - N/A   Clear
4:55 AM 8.6 °F -6.3 °F -2.2 °F 62% 30.54 in 10.0 mi NNW 11.5 mph - N/A   Clear
5:15 AM 8.6 °F -6.3 °F -2.2 °F 62% 30.55 in 10.0 mi NNW 11.5 mph 16.1 mph N/A   Clear
5:35 AM 8.6 °F -5.5 °F -2.2 °F 62% 30.55 in 10.0 mi NNW 10.4 mph 19.6 mph N/A   Clear
5:55 AM 8.6 °F 0.1 °F -4.0 °F 57% 30.56 in 10.0 mi NNW 4.6 mph - N/A   Clear
6:15 AM 8.6 °F -4.7 °F -4.0 °F 57% 30.56 in 10.0 mi NNW 9.2 mph - N/A   Clear
6:35 AM 8.6 °F -7.0 °F -4.0 °F 57% 30.56 in 10.0 mi NNW 12.7 mph 16.1 mph N/A   Clear
6:55 AM 8.6 °F -5.5 °F -4.0 °F 57% 30.56 in 10.0 mi NNW 10.4 mph - N/A   Clear
7:15 AM 8.6 °F - -0.4 °F 67% 30.56 in 10.0 mi Calm Calm - N/A   Clear
7:35 AM 8.6 °F 0.1 °F 1.4 °F 73% 30.57 in 10.0 mi WNW 4.6 mph - N/A   Clear
7:55 AM 8.6 °F -3.7 °F 1.4 °F 73% 30.57 in 10.0 mi WNW 8.1 mph - N/A   Clear
8:15 AM 8.6 °F - 1.4 °F 73% 30.57 in 10.0 mi Calm Calm - N/A   Clear
8:35 AM 10.4 °F -1.5 °F 1.4 °F 67% 30.57 in 10.0 mi WNW 8.1 mph - N/A   Clear
9:15 AM 10.4 °F 0.8 °F 1.4 °F 67% 30.58 in 10.0 mi WNW 5.8 mph - N/A   Clear
9:35 AM 12.2 °F 2.9 °F 1.4 °F 62% 30.58 in 10.0 mi WNW 5.8 mph - N/A   Clear
9:55 AM 12.2 °F -0.2 °F -0.4 °F 57% 30.57 in 10.0 mi North 9.2 mph - N/A   Clear
10:15 AM 12.2 °F - -0.4 °F 57% 30.57 in 10.0 mi Calm Calm - N/A   Clear
10:35 AM 14.0 °F - -0.4 °F 53% 30.57 in 10.0 mi Calm Calm - N/A   Clear
10:55 AM 14.0 °F 5.1 °F -0.4 °F 53% 30.57 in 10.0 mi WNW 5.8 mph - N/A   Clear
11:15 AM 14.0 °F - -0.4 °F 53% 30.56 in 10.0 mi Calm Calm - N/A   Clear
11:35 AM 15.8 °F 7.2 °F -0.4 °F 49% 30.56 in 10.0 mi West 5.8 mph - N/A   Clear
11:55 AM 15.8 °F 10.2 °F -0.4 °F 49% 30.55 in 10.0 mi WSW 3.5 mph - N/A   Clear
12:15 PM 17.6 °F - 3.2 °F 53% 30.54 in 10.0 mi Calm Calm - N/A   Clear
12:35 PM 15.8 °F - 1.4 °F 53% 30.53 in 10.0 mi Calm Calm - N/A   Clear
12:55 PM 15.8 °F 5.1 °F 1.4 °F 53% 30.51 in 10.0 mi WSW 8.1 mph - N/A   Clear
1:15 PM 17.6 °F - 1.4 °F 49% 30.51 in 10.0 mi Calm Calm - N/A   Clear
1:35 PM 17.6 °F 7.3 °F -0.4 °F 45% 30.50 in 10.0 mi WSW 8.1 mph - N/A   Clear
1:55 PM 17.6 °F 10.7 °F -2.2 °F 42% 30.50 in 10.0 mi West 4.6 mph - N/A   Clear
2:15 PM 17.6 °F - -0.4 °F 45% 30.49 in 10.0 mi Calm Calm - N/A   Clear
2:35 PM 17.6 °F 10.7 °F -0.4 °F 45% 30.49 in 10.0 mi West 4.6 mph - N/A   Clear
2:55 PM 17.6 °F 10.7 °F -0.4 °F 45% 30.49 in 10.0 mi West 4.6 mph - N/A   Clear
3:15 PM 15.8 °F 5.1 °F -0.4 °F 49% 30.48 in 10.0 mi WSW 8.1 mph - N/A   Clear
3:35 PM 15.8 °F 4.2 °F -0.4 °F 49% 30.48 in 10.0 mi SW 9.2 mph - N/A   Clear
3:55 PM 15.8 °F 6.1 °F -0.4 °F 49% 30.46 in 10.0 mi SSW 6.9 mph - N/A   Clear
4:15 PM 14.0 °F 2.0 °F -2.2 °F 49% 30.47 in 10.0 mi SW 9.2 mph - N/A   Clear
4:35 PM 14.0 °F 2.9 °F -0.4 °F 53% 30.46 in 10.0 mi WSW 8.1 mph - N/A   Clear
4:55 PM 14.0 °F 5.1 °F 1.4 °F 57% 30.45 in 10.0 mi SW 5.8 mph - N/A   Clear
5:15 PM 14.0 °F 2.9 °F -0.4 °F 53% 30.45 in 10.0 mi SW 8.1 mph - N/A   Clear
5:35 PM 14.0 °F 5.1 °F -0.4 °F 53% 30.44 in 10.0 mi SW 5.8 mph - N/A   Clear
5:55 PM 14.0 °F 5.1 °F -0.4 °F 53% 30.43 in 10.0 mi SW 5.8 mph - N/A   Clear
6:15 PM 14.0 °F 6.5 °F -0.4 °F 53% 30.42 in 10.0 mi SSW 4.6 mph - N/A   Clear
6:35 PM 12.2 °F 2.9 °F 1.4 °F 62% 30.41 in 10.0 mi SSW 5.8 mph - N/A   Clear
6:55 PM 10.4 °F 2.2 °F 1.4 °F 67% 30.41 in 10.0 mi SSE 4.6 mph - N/A   Clear
7:15 PM 10.4 °F 2.2 °F 1.4 °F 67% 30.41 in 10.0 mi SSE 4.6 mph - N/A   Clear
7:35 PM 10.4 °F 0.8 °F 1.4 °F 67% 30.40 in 10.0 mi South 5.8 mph - N/A   Clear
7:55 PM 10.4 °F -1.5 °F -0.4 °F 62% 30.39 in 10.0 mi SSE 8.1 mph - N/A   Clear
8:15 PM 10.4 °F -3.3 °F -0.4 °F 62% 30.37 in 10.0 mi SSE 10.4 mph - N/A   Clear
8:35 PM 10.4 °F -1.5 °F 1.4 °F 67% 30.37 in 10.0 mi SSE 8.1 mph - N/A   Clear
8:55 PM 10.4 °F -0.4 °F 1.4 °F 67% 30.35 in 10.0 mi SSE 6.9 mph - N/A   Clear
9:15 PM 10.4 °F -3.3 °F 1.4 °F 67% 30.34 in 10.0 mi SSE 10.4 mph - N/A   Clear
9:35 PM 10.4 °F -2.4 °F 1.4 °F 67% 30.34 in 10.0 mi SSE 9.2 mph - N/A   Clear
9:55 PM 10.4 °F -0.4 °F 1.4 °F 67% 30.34 in 10.0 mi South 6.9 mph - N/A   Clear
10:15 PM 12.2 °F -1.0 °F 1.4 °F 62% 30.34 in 10.0 mi South 10.4 mph - N/A   Clear
10:35 PM 12.2 °F -1.0 °F 3.2 °F 67% 30.34 in 10.0 mi SSE 10.4 mph - N/A   Clear
10:55 PM 12.2 °F -1.0 °F 3.2 °F 67% 30.33 in 10.0 mi South 10.4 mph - N/A   Clear
11:15 PM 12.2 °F -0.2 °F 3.2 °F 67% 30.33 in 10.0 mi SSE 9.2 mph - N/A   Clear
11:35 PM 12.2 °F 0.7 °F 3.2 °F 67% 30.33 in 10.0 mi South 8.1 mph - N/A   Clear
11:55 PM 12.2 °F -0.2 °F 3.2 °F 67% 30.32 in 10.0 mi SSE 9.2 mph - N/A   Clear